EA5LR-10 Weather Reports


time (UTC)temp
C
wind
direction
speed
KPH
gust
KPH
rain 1hr
cm
rain 24hr
cm
rain mn
cm
humidity
%
barometer
mb
20260504120103 21 242 3.2 4.8 0.00 15.01 20.98 78 1012.8
20260504110558 21 130 6.4 9.7 0.00 15.01 20.98 79 1013.6
20260504050602 18 186 3.2 6.4 0.00 15.01 20.98 91 1013.8
20260504045602 18 168 4.8 14.5 0.00 15.01 20.98 91 1013.7
20260504045102 18 134 6.4 12.9 0.00 15.01 20.98 91 1013.6
20260504044602 18 193 1.6 3.2 0.00 15.01 20.98 91 1013.7
20260504044102 18 181 1.6 3.2 0.00 15.01 20.98 91 1013.7
20260504043602 18 161 3.2 4.8 0.00 15.01 20.98 91 1013.7
20260504043102 18 149 4.8 9.7 0.00 15.01 20.98 91 1013.5
20260504042602 18 213 0.0 3.2 0.00 15.01 20.98 90 1013.5
20260504042102 18 154 1.6 3.2 0.00 15.01 20.98 90 1013.7
20260504041602 18 122 1.6 3.2 0.00 15.01 20.98 90 1013.7
20260504041102 18 192 0.0 4.8 0.00 15.01 20.98 91 1013.7
20260504040602 18 213 3.2 6.4 0.00 15.01 20.98 91 1013.5
20260504035102 18 163 0.0 0.0 0.00 15.01 20.98 90 1013.7
20260504034601 18 237 3.2 4.8 0.00 15.01 20.98 90 1013.8
20260504034102 18 237 1.6 3.2 0.00 15.01 20.98 90 1013.9
20260504033602 18 235 0.0 3.2 0.00 15.01 20.98 90 1013.9
20260504033102 18 223 0.0 1.6 0.00 15.01 20.98 90 1013.8
20260504032602 18 239 0.0 1.6 0.00 15.01 20.98 90 1013.9
20260504032101 18 234 0.0 1.6 0.00 15.01 20.98 90 1014.0
20260504031601 18 234 0.0 1.6 0.00 15.01 20.98 90 1014.1
20260504031101 18 234 0.0 1.6 0.00 15.01 20.98 90 1014.1
20260504030601 18 235 1.6 3.2 0.00 15.01 20.98 90 1014.0
20260504025601 18 177 1.6 3.2 0.00 15.01 20.98 90 1014.2
20260504025101 18 224 3.2 4.8 0.00 15.01 20.98 90 1014.2
20260504024600 18 214 0.0 1.6 0.00 15.01 20.98 90 1014.2
20260504024100 18 144 1.6 3.2 0.00 15.01 20.98 90 1014.1
20260504023600 18 174 0.0 1.6 0.00 15.01 20.98 90 1014.3
20260504023100 18 219 4.8 8.0 0.00 15.01 20.98 90 1014.2
20260504022600 18 221 1.6 3.2 0.00 15.01 20.98 90 1014.2
20260504022100 18 215 3.2 8.0 0.00 15.01 20.98 90 1014.1
20260504021600 18 184 3.2 6.4 0.00 15.01 20.98 90 1014.2
20260504020600 18 139 4.8 6.4 0.00 15.01 20.98 91 1014.0
20260504020100 18 136 1.6 1.6 0.00 15.01 20.98 90 1014.3
20260504015600 18 199 3.2 6.4 0.00 15.01 20.98 90 1014.6
20260504015100 18 164 3.2 6.4 0.00 15.01 20.98 90 1014.3
20260504014600 18 222 3.2 6.4 0.00 15.01 20.98 90 1014.3
20260504014100 18 210 3.2 6.4 0.00 15.01 20.98 90 1014.4
20260504013600 18 177 3.2 4.8 0.00 15.01 20.98 89 1014.4
20260504013100 18 187 3.2 4.8 0.00 15.01 20.98 89 1014.5
20260504012600 18 199 3.2 4.8 0.00 15.01 20.98 89 1014.5
20260504012100 18 175 3.2 4.8 0.00 15.01 20.98 89 1014.5
20260504011600 18 240 0.0 1.6 0.00 15.01 20.98 89 1014.5
20260504011100 18 227 6.4 8.0 0.00 15.01 20.98 89 1014.5
20260504010600 18 176 1.6 3.2 0.00 15.01 20.98 89 1014.4
20260504010100 18 195 1.6 4.8 0.00 15.01 20.98 90 1014.6
20260504005600 18 246 4.8 6.4 0.00 15.01 20.98 90 1014.5
20260504005100 18 239 3.2 6.4 0.00 15.01 20.98 90 1014.5
20260504004600 18 237 1.6 4.8 0.00 15.01 20.98 90 1014.7
20260504004100 18 153 1.6 3.2 0.00 15.01 20.98 91 1014.8
20260504003559 18 202 4.8 6.4 0.00 15.01 20.98 91 1014.8
20260504003059 18 214 4.8 8.0 0.00 15.01 20.98 92 1014.8
20260504002559 18 152 3.2 6.4 0.00 15.01 20.98 92 1014.7
20260504002059 18 161 1.6 6.4 0.00 15.01 20.98 92 1014.6
20260504001559 18 127 1.6 3.2 0.00 15.01 20.98 92 1014.9
20260504001100 18 178 0.0 0.0 0.00 15.01 20.98 92 1014.7
20260504000059 18 162 1.6 4.8 0.00 15.01 20.98 92 1014.8
20260503235559 18 141 0.0 1.6 0.00 15.01 20.98 92 1014.8
20260503235059 18 139 0.0 1.6 0.00 15.01 20.98 92 1014.6
20260503234559 18 139 0.0 3.2 0.00 15.01 20.98 92 1014.9
20260503234059 18 131 0.0 1.6 0.00 15.01 20.98 92 1014.9
20260503233558 18 130 0.0 1.6 0.00 15.01 20.98 92 1015.0
20260503233058 18 112 0.0 1.6 0.00 15.01 20.98 92 1014.9
20260503232554 18 111 1.6 3.2 0.00 15.01 20.98 92 1015.1
20260503232054 18 111 0.0 0.0 0.00 15.01 20.98 92 1015.1
20260503231554 18 111 0.0 0.0 0.00 15.01 20.98 92 1015.0
20260503231054 18 111 0.0 1.6 0.00 15.01 20.98 92 1014.9
20260503230554 18 107 1.6 1.6 0.00 15.01 20.98 92 1015.1
20260503230054 18 115 1.6 1.6 0.00 15.01 20.98 92 1015.1
20260503225554 18 114 0.0 0.0 0.00 15.01 20.98 92 1015.1
20260503225054 18 111 0.0 0.0 0.00 15.01 20.98 92 1015.2
20260503224554 18 110 0.0 0.0 0.00 15.01 20.98 92 1015.2
20260503224054 18 113 0.0 0.0 0.00 15.01 20.98 92 1015.1
20260503223554 18 113 0.0 0.0 0.00 15.01 20.98 92 1015.3
20260503223054 18 113 0.0 0.0 0.00 15.01 20.98 92 1015.2
20260503222554 18 113 0.0 1.6 0.00 15.01 20.98 92 1015.1
20260503222054 18 113 0.0 0.0 0.00 15.01 20.98 92 1015.1
20260503221554 18 108 0.0 1.6 0.00 15.01 20.98 92 1015.3
20260503221054 18 117 0.0 1.6 0.00 15.01 20.98 92 1015.4
20260503220054 18 115 0.0 1.6 0.00 15.01 20.98 92 1015.5
20260503215554 18 121 0.0 0.0 0.00 15.01 20.98 92 1015.2
20260503215054 18 95 1.6 1.6 0.00 15.01 20.98 92 1015.4
20260503214554 18 95 0.0 0.0 0.00 15.01 20.98 92 1015.5
20260503214054 18 95 0.0 1.6 0.00 15.01 20.98 92 1015.5
20260503213554 18 106 1.6 4.8 0.00 15.01 20.98 92 1015.5
20260503213054 18 98 4.8 4.8 0.00 15.01 20.98 92 1015.6
20260503212554 18 92 3.2 4.8 0.00 15.01 20.98 92 1015.6
20260503212054 18 105 3.2 4.8 0.00 15.01 20.98 92 1015.5
20260503211554 18 102 3.2 4.8 0.00 15.01 20.98 92 1015.6
20260503211054 18 100 3.2 4.8 0.00 15.01 20.98 92 1015.6
20260503210554 18 113 3.2 4.8 0.00 15.01 20.98 92 1015.5
20260503210054 18 113 4.8 6.4 0.00 15.01 20.98 92 1015.6
20260503205554 18 92 3.2 4.8 0.00 15.01 20.98 92 1015.5
20260503205054 18 91 1.6 3.2 0.00 15.01 20.98 91 1015.6
20260503204554 18 100 1.6 3.2 0.00 15.01 20.98 91 1015.3
20260503204054 18 87 6.4 6.4 0.00 15.01 20.98 91 1015.4
20260503203554 18 104 4.8 6.4 0.00 15.01 20.98 91 1015.5
20260503203053 18 98 6.4 8.0 0.00 15.01 20.98 91 1015.3
20260503202553 18 109 4.8 8.0 0.00 15.01 20.98 90 1015.2
20260503202054 18 84 3.2 4.8 0.00 15.01 20.98 90 1015.2
20260503201053 18 112 3.2 6.4 0.00 15.01 20.98 89 1015.2
20260503200553 18 105 6.4 8.0 0.00 15.01 20.98 88 1015.1
20260503200053 18 91 6.4 8.0 0.00 15.01 20.98 88 1014.9
20260503195553 18 126 6.4 9.7 0.00 15.01 20.98 88 1014.8
20260503195053 18 87 4.8 6.4 0.00 15.01 20.98 89 1014.7
20260503194553 18 105 4.8 6.4 0.00 15.01 20.98 88 1014.7
20260503194053 18 82 4.8 8.0 0.00 15.01 20.98 89 1014.7
20260503193553 18 97 3.2 8.0 0.00 15.01 20.98 89 1014.6
20260503193053 18 95 3.2 4.8 0.00 15.01 20.98 89 1014.5
20260503192553 18 86 4.8 6.4 0.00 15.01 20.98 89 1014.3
20260503192053 18 81 1.6 3.2 0.00 15.01 20.98 89 1014.3
20260503191553 18 93 1.6 4.8 0.00 15.01 20.98 89 1014.1
20260503191053 18 87 4.8 6.4 0.00 15.01 20.98 88 1014.1
20260503190553 18 70 0.0 1.6 0.00 15.01 20.98 89 1013.9
20260503190053 18 88 4.8 6.4 0.00 15.01 20.98 88 1013.9
20260503185553 18 94 6.4 9.7 0.00 15.01 20.98 88 1013.8
20260503185053 18 89 1.6 1.6 0.00 15.01 20.98 88 1013.7
20260503184553 18 83 0.0 3.2 0.00 15.01 20.98 88 1013.7
20260503184053 18 77 4.8 6.4 0.00 15.01 20.98 88 1013.6
20260503183553 18 85 8.0 9.7 0.00 15.01 20.98 88 1013.7
20260503183053 18 95 8.0 9.7 0.00 15.01 20.98 87 1013.8
20260503182553 18 94 6.4 8.0 0.00 15.01 20.98 88 1013.6
20260503181256 18 94 4.8 6.4 0.00 15.01 20.98 87 1013.5
20260503180756 18 89 4.8 6.4 0.00 15.01 20.98 87 1013.5
20260503180256 18 65 1.6 1.6 0.00 15.01 20.98 87 1013.6
20260503175221 18 86 4.8 6.4 0.00 15.01 20.98 87 1013.6
20260503174721 18 103 3.2 4.8 0.00 15.01 20.98 87 1013.4
20260503174221 18 81 4.8 6.4 0.00 15.01 20.98 88 1013.4
20260503173721 18 100 3.2 4.8 0.00 15.01 20.98 88 1013.5
20260503173221 18 78 3.2 4.8 0.00 15.01 20.98 88 1013.5
20260503172721 18 98 3.2 4.8 0.00 15.01 20.98 88 1013.5
20260503171520 19 111 1.6 3.2 0.00 15.01 20.98 87 1013.1
20260503171020 19 95 4.8 9.7 0.00 15.01 20.98 87 1013.2
20260503170132 18 115 8.0 9.7 0.00 15.01 20.98 88 1013.1
20260503150527 20 80 4.8 6.4 0.00 15.01 20.98 84 1013.8
20260503131027 20 80 4.8 4.8 0.00 15.01 20.98 83 1014.7
20260503130527 20 89 8.0 12.9 0.00 15.01 20.98 83 1014.9